Preview of NWS' New Version of Forecast
This preview is not operational and should not be used for support decisions.

Regional Weather Roundup (RWR)

Issued by National Weather Service (NWS)

                            
000
ASCA42 TJSJ 210210
RWRPR 
PUERTO RICO/U.S. VIRGIN ISLANDS HOURLY WEATHER ROUNDUP
NATIONAL WEATHER SERVICE SAN JUAN PR
1000 PM AST MON MAY 20 2019

PRZ001>002-007>008-010-210300-
PUERTO RICO
  
CITY           SKY/WX    TMP DP  RH WIND       PRES   REMARKS
SAN JUAN LMM   PTCLDY    81  73  78 CALM      30.00R                  
CEIBA          MOCLDY    82  73  74 SE10      30.01R                  
$$

VIZ001>002-210300-
U.S. VIRGIN ISLANDS
  
CITY           SKY/WX    TMP DP  RH WIND       PRES   REMARKS
CHARLOTTE AMA  PTCLDY    81  72  74 E10       30.00R                  
CHRISTIANSTED  MOCLDY    79  73  83 E8        30.00R                  
$$

HOURLY WEATHER ROUNDUP FOR THE NEWS MEDIA
  
CITY           SKY/WX    TMP DP  RH WIND       PRES   REMARKS
ORLANDO        FAIR      78  70  76 SE8       29.99R                  
NEW YORK       FAIR      79  51  37 W15G22    29.74R                  
NEWARK         FAIR      79  48  33 W12       29.73R                  
CHICAGO        CLOUDY    48  35  60 E10       30.13R                  
HARTFORD       MOCLDY    61  61 100 S8        29.69F                  
BOSTON         MOCLDY    72  65  78 SW15      29.64F                  
DALLAS         MOCLDY    84  68  58 S17G26    29.61R                  
PHILADELPHIA   FAIR      81  51  35 W12       29.79R                  
LOS ANGELES    PTCLDY    62  49  62 SW21G29   29.92S                  
WASHINGTON DC  FAIR      75  51  43 NW9       29.86R